Location: ????????
(60.4333°N, 46.4710°E)
Time: 14:21:06
(UTC+00:00)

Envisat - Visible Passes

Search period start: 25 February 2021 00:00
Search period end: 07 March 2021 00:00
Orbit: 764 x 766 km, 98.1° (Epoch: 24 February)

Date Brightness Start Highest point End Pass type
(mag) Time Alt. Az. Time Alt. Az. Time Alt. Az.
25 Feb 4.9 01:59:35 10° NNE 02:04:11 33° E 02:08:45 10° SSE visible
25 Feb 6.0 15:05:21 10° SW 15:08:56 19° W 15:12:34 10° NW visible
26 Feb 5.7 01:23:14 10° NE 01:26:55 20° E 01:30:35 10° SE visible
26 Feb 3.2 03:01:37 10° NNE 03:06:46 81° ESE 03:11:51 10° SSW visible
27 Feb 6.3 00:47:53 10° ENE 00:49:27 11° ENE 00:51:01 10° E visible
27 Feb 4.1 02:24:51 10° NNE 02:29:47 47° E 02:34:42 10° S visible
27 Feb 6.4 15:32:26 10° WSW 15:34:47 13° WNW 15:37:08 10° NW visible
28 Feb 5.2 01:48:15 10° NNE 01:52:39 28° E 01:57:01 10° SSE visible
01 Mar 6.0 01:12:03 10° NE 01:15:19 17° E 01:18:33 10° ESE visible
01 Mar 3.4 02:50:12 10° NNE 02:55:19 69° ESE 03:00:23 10° S visible
02 Mar 4.5 02:13:28 10° NNE 02:18:17 40° E 02:23:05 10° SSE visible
02 Mar 6.2 15:20:10 10° WSW 15:23:09 15° W 15:26:09 10° NW visible
03 Mar 5.5 01:36:58 10° NE 01:41:05 24° E 01:45:11 10° SE visible
04 Mar 6.1 01:00:59 10° NE 01:03:42 14° E 01:06:24 10° ESE visible
04 Mar 3.7 02:38:47 10° NNE 02:43:50 59° ESE 02:48:52 10° S visible
04 Mar 6.7 15:48:24 10° W 15:49:02 10° WNW 15:49:41 10° WNW visible
05 Mar 4.8 02:02:06 10° NNE 02:06:46 35° E 02:11:24 10° SSE visible
05 Mar 6.1 15:08:05 10° SW 15:11:32 18° W 15:15:01 10° NW visible
06 Mar 5.7 01:25:42 10° NE 01:29:31 21° E 01:33:18 10° SE visible
